KUIPER-00013 (63729 NORAD) Tracking and Keplerian Element Data

This shows tracking and keplerian element data for the satellite.

Feedback or suggestion? Click here.




ElementValue
Catalog63729
NameKUIPER-00013
Epoch Orbit3577
Epoch Day354.0291584
Epoch Year2025
RAAN100.3437
Inclination51.9023
Eccentricity0.0008125
Argument of Perigee119.0854
Mean Anonmoly241.0923
Mean Motion14.79960563
Decay Rate-2.8E-05
L11 63729U 25088F 25354.02915840 -.00002800 00000+0 -33766-3 0 9997
L22 63729 51.9023 100.3437 0008125 119.0854 241.0923 14.79960563 35774



Live tracking and technical data element details for KUIPER-00013 (NORAD 63729). KUIPER-00013 can be tracked NOW for your location showing map with azimuth and elevation plus other details from your city location.







IsCatalogInMostPopularTable: catalog: 63729, numindb: 3
Update: records affected: 1



GetName: 63729 KUIPER-00013

Hit Count: updated at: Mon, 20 Apr 2026 10:34:21 GMT